User: anonymous   Login
Location: Barrio de Buenos Aires
(28.4500°N, 16.2667°W)
Time: 12:56:44
(UTC+00:00)
Language:

Atlas Centaur 2 - Orbit

View from above orbital plane
View from above orbital plane
View from above satellite
View from above satellite

Ground track
Ground track

The orbit data is extracted from the following two-line orbital elements,

1   694U 63047A   20099.15699872  .00000216  00000-0  12913-4 0  9995
2   694  30.3597 277.8678 0586031 296.4034  57.7570 14.02588238826844
Epoch (UTC): 08 April 2020 03:46:04
Eccentricity: 0.0586031
inclination: 30.3597°
perigee height: 459 km
apogee height: 1310 km
right ascension of ascending node: 277.8678°
argument of perigee: 296.4034°
revolutions per day: 14.02588238
mean anomaly at epoch: 57.7570°
orbit number at epoch: 82684

The dashed part of the orbit path shows where the satellite is in the earth's shadow,  

DLR